Time,TemperatureF,DewpointF,PressureIn,WindDirection,WindDirectionDegrees,WindSpeedMPH,WindSpeedGustMPH,Humidity,HourlyPrecipIn,Conditions,Clouds,dailyrainin,SoftwareType,DateUTC
2013-04-08 00:16:00,71.2,61.0,30.12,East,81,1.0,2.0,69,0.00,,,0.00,weatherlink.com 1.10,2013-04-08 04:16:00,
2013-04-08 00:31:00,71.3,61.0,30.11,ENE,60,3.0,4.0,69,0.00,,,0.00,weatherlink.com 1.10,2013-04-08 04:31:00,
2013-04-08 00:46:00,71.3,60.0,30.11,East,98,0.0,4.0,68,0.00,,,0.00,weatherlink.com 1.10,2013-04-08 04:46:00,
2013-04-08 01:01:00,71.1,61.0,30.10,NE,44,0.0,3.0,70,0.00,,,0.00,weatherlink.com 1.10,2013-04-08 05:01:00,
2013-04-08 01:16:00,71.2,61.0,30.10,East,101,1.0,3.0,69,0.00,,,0.00,weatherlink.com 1.10,2013-04-08 05:16:00,
2013-04-08 01:31:00,71.1,60.0,30.10,ENE,70,2.0,4.0,69,0.00,,,0.00,weatherlink.com 1.10,2013-04-08 05:31:00,
2013-04-08 01:46:00,70.9,60.0,30.09,ENE,71,0.0,2.0,68,0.00,,,0.00,weatherlink.com 1.10,2013-04-08 05:46:00,
2013-04-08 02:01:00,70.6,60.0,30.09,ENE,65,0.0,2.0,70,0.00,,,0.00,weatherlink.com 1.10,2013-04-08 06:01:00,
2013-04-08 02:16:00,70.9,60.0,30.08,ENE,68,0.0,2.0,68,0.00,,,0.00,weatherlink.com 1.10,2013-04-08 06:16:00,
2013-04-08 02:31:00,70.3,60.0,30.08,East,85,0.0,2.0,70,0.00,,,0.00,weatherlink.com 1.10,2013-04-08 06:31:00,
2013-04-08 02:47:00,69.9,60.0,30.08,ENE,78,0.0,1.0,71,0.00,,,0.00,weatherlink.com 1.10,2013-04-08 06:47:00,
2013-04-08 03:01:00,70.2,60.0,30.08,ENE,75,1.0,2.0,69,0.00,,,0.00,weatherlink.com 1.10,2013-04-08 07:01:00,
2013-04-08 03:16:00,69.7,59.0,30.07,ESE,108,0.0,1.0,68,0.00,,,0.00,weatherlink.com 1.10,2013-04-08 07:16:00,
2013-04-08 03:31:00,69.7,59.0,30.07,ENE,63,0.0,1.0,68,0.00,,,0.00,weatherlink.com 1.10,2013-04-08 07:31:00,
2013-04-08 03:46:00,68.3,59.0,30.07,ENE,63,0.0,0.0,73,0.00,,,0.00,weatherlink.com 1.10,2013-04-08 07:46:00,
2013-04-08 04:02:00,66.5,59.0,30.07,ENE,63,0.0,0.0,77,0.00,,,0.00,weatherlink.com 1.10,2013-04-08 08:02:00,
2013-04-08 04:17:00,65.3,59.0,30.07,ENE,63,0.0,0.0,80,0.00,,,0.00,weatherlink.com 1.10,2013-04-08 08:17:00,
2013-04-08 04:32:00,64.2,59.0,30.06,ENE,60,0.0,0.0,83,0.00,,,0.00,weatherlink.com 1.10,2013-04-08 08:32:00,
2013-04-08 04:47:00,63.5,59.0,30.06,ENE,60,0.0,0.0,86,0.00,,,0.00,weatherlink.com 1.10,2013-04-08 08:47:00,
2013-04-08 05:02:00,63.1,60.0,30.06,ENE,63,0.0,0.0,88,0.00,,,0.00,weatherlink.com 1.10,2013-04-08 09:02:00,
2013-04-08 05:17:00,62.6,59.0,30.06,ENE,63,0.0,0.0,88,0.00,,,0.00,weatherlink.com 1.10,2013-04-08 09:17:00,
2013-04-08 05:32:00,62.5,59.0,30.07,ENE,63,0.0,0.0,89,0.00,,,0.00,weatherlink.com 1.10,2013-04-08 09:32:00,
2013-04-08 05:47:00,62.2,59.0,30.06,ENE,63,0.0,0.0,90,0.00,,,0.00,weatherlink.com 1.10,2013-04-08 09:47:00,
2013-04-08 06:02:00,62.1,60.0,30.07,ENE,63,0.0,0.0,91,0.00,,,0.00,weatherlink.com 1.10,2013-04-08 10:02:00,
2013-04-08 06:17:00,61.7,59.0,30.07,ENE,63,0.0,0.0,91,0.00,,,0.00,weatherlink.com 1.10,2013-04-08 10:17:00,
2013-04-08 06:32:00,61.5,59.0,30.07,ENE,63,0.0,0.0,92,0.00,,,0.00,weatherlink.com 1.10,2013-04-08 10:32:00,
2013-04-08 06:47:00,61.3,59.0,30.08,ENE,63,0.0,0.0,93,0.00,,,0.00,weatherlink.com 1.10,2013-04-08 10:47:00,
2013-04-08 07:02:00,61.2,59.0,30.09,ENE,63,0.0,0.0,93,0.00,,,0.00,weatherlink.com 1.10,2013-04-08 11:02:00,
2013-04-08 07:17:00,61.4,60.0,30.09,ENE,63,0.0,0.0,94,0.00,,,0.00,weatherlink.com 1.10,2013-04-08 11:17:00,
2013-04-08 07:32:00,61.9,60.0,30.10,ENE,63,0.0,0.0,93,0.00,,,0.00,weatherlink.com 1.10,2013-04-08 11:32:00,
2013-04-08 07:47:00,63.0,61.0,30.10,ENE,63,0.0,0.0,94,0.00,,,0.00,weatherlink.com 1.10,2013-04-08 11:47:00,
2013-04-08 08:02:00,64.5,63.0,30.11,ENE,63,0.0,0.0,93,0.00,,,0.00,weatherlink.com 1.10,2013-04-08 12:02:00,
2013-04-08 08:17:00,66.6,62.0,30.11,ESE,111,0.0,1.0,85,0.00,,,0.00,weatherlink.com 1.10,2013-04-08 12:17:00,
2013-04-08 08:32:00,70.8,63.0,30.11,East,80,0.0,1.0,75,0.00,,,0.00,weatherlink.com 1.10,2013-04-08 12:32:00,
2013-04-08 08:47:00,72.8,62.0,30.12,East,81,0.0,3.0,68,0.00,,,0.00,weatherlink.com 1.10,2013-04-08 12:47:00,
2013-04-08 09:02:00,74.6,62.0,30.12,ESE,122,0.0,3.0,65,0.00,,,0.00,weatherlink.com 1.10,2013-04-08 13:02:00,
2013-04-08 09:17:00,75.5,61.0,30.12,East,92,0.0,2.0,62,0.00,,,0.00,weatherlink.com 1.10,2013-04-08 13:17:00,
2013-04-08 09:32:00,76.6,62.0,30.13,ENE,77,0.0,2.0,60,0.00,,,0.00,weatherlink.com 1.10,2013-04-08 13:32:00,
2013-04-08 09:47:00,78.1,61.0,30.13,ENE,60,2.0,4.0,56,0.00,,,0.00,weatherlink.com 1.10,2013-04-08 13:47:00,
2013-04-08 10:02:00,79.2,62.0,30.13,ENE,67,3.0,4.0,55,0.00,,,0.00,weatherlink.com 1.10,2013-04-08 14:02:00,
2013-04-08 10:17:00,78.8,61.0,30.14,ENE,76,1.0,6.0,54,0.00,,,0.00,weatherlink.com 1.10,2013-04-08 14:17:00,
2013-04-08 10:32:00,80.1,62.0,30.14,ENE,71,2.0,4.0,54,0.00,,,0.00,weatherlink.com 1.10,2013-04-08 14:32:00,
2013-04-08 10:47:00,80.3,62.0,30.14,ENE,57,0.0,5.0,54,0.00,,,0.00,weatherlink.com 1.10,2013-04-08 14:47:00,
2013-04-08 11:02:00,80.4,63.0,30.15,East,91,2.0,3.0,56,0.00,,,0.00,weatherlink.com 1.10,2013-04-08 15:02:00,
2013-04-08 11:18:00,80.1,64.0,30.14,ENE,60,3.0,4.0,58,0.00,,,0.00,weatherlink.com 1.10,2013-04-08 15:18:00,
2013-04-08 11:33:00,79.9,64.0,30.15,ENE,76,2.0,6.0,58,0.00,,,0.00,weatherlink.com 1.10,2013-04-08 15:33:00,
2013-04-08 11:48:00,80.5,64.0,30.14,NNE,29,2.0,6.0,58,0.00,,,0.00,weatherlink.com 1.10,2013-04-08 15:48:00,
2013-04-08 12:03:00,80.4,63.0,30.15,ENE,65,2.0,5.0,56,0.00,,,0.00,weatherlink.com 1.10,2013-04-08 16:03:00,
2013-04-08 12:18:00,80.8,64.0,30.14,ENE,72,1.0,5.0,57,0.00,,,0.00,weatherlink.com 1.10,2013-04-08 16:18:00,
2013-04-08 12:33:00,81.0,64.0,30.14,ESE,110,2.0,6.0,57,0.00,,,0.00,weatherlink.com 1.10,2013-04-08 16:33:00,
2013-04-08 12:48:00,81.5,64.0,30.14,ENE,78,4.0,5.0,55,0.00,,,0.00,weatherlink.com 1.10,2013-04-08 16:48:00,
2013-04-08 13:03:00,81.3,64.0,30.14,NE,40,2.0,6.0,55,0.00,,,0.00,weatherlink.com 1.10,2013-04-08 17:03:00,
2013-04-08 13:18:00,81.5,63.0,30.14,NE,36,2.0,8.0,53,0.00,,,0.00,weatherlink.com 1.10,2013-04-08 17:18:00,
2013-04-08 13:33:00,82.0,63.0,30.12,ENE,59,3.0,4.0,53,0.00,,,0.00,weatherlink.com 1.10,2013-04-08 17:33:00,
2013-04-08 13:48:00,82.2,63.0,30.12,ENE,68,2.0,5.0,53,0.00,,,0.00,weatherlink.com 1.10,2013-04-08 17:48:00,
2013-04-08 14:03:00,81.8,62.0,30.12,ENE,75,3.0,5.0,52,0.00,,,0.00,weatherlink.com 1.10,2013-04-08 18:03:00,
2013-04-08 14:18:00,81.4,63.0,30.11,ENE,72,1.0,5.0,54,0.00,,,0.00,weatherlink.com 1.10,2013-04-08 18:18:00,
2013-04-08 14:33:00,82.0,63.0,30.11,ENE,68,1.0,5.0,53,0.00,,,0.00,weatherlink.com 1.10,2013-04-08 18:33:00,
2013-04-08 14:48:00,81.9,63.0,30.10,ENE,65,4.0,7.0,53,0.00,,,0.00,weatherlink.com 1.10,2013-04-08 18:48:00,
2013-04-08 15:03:00,82.4,63.0,30.09,ENE,64,5.0,5.0,53,0.00,,,0.00,weatherlink.com 1.10,2013-04-08 19:03:00,
2013-04-08 15:18:00,82.4,63.0,30.09,ENE,68,1.0,6.0,53,0.00,,,0.00,weatherlink.com 1.10,2013-04-08 19:18:00,
2013-04-08 15:33:00,82.0,63.0,30.09,NE,49,1.0,4.0,52,0.00,,,0.00,weatherlink.com 1.10,2013-04-08 19:33:00,
2013-04-08 15:48:00,82.3,64.0,30.09,NE,54,1.0,4.0,54,0.00,,,0.00,weatherlink.com 1.10,2013-04-08 19:48:00,
2013-04-08 16:03:00,81.4,63.0,30.09,NE,54,3.0,4.0,53,0.00,,,0.00,weatherlink.com 1.10,2013-04-08 20:03:00,
2013-04-08 16:19:00,81.4,63.0,30.08,East,96,1.0,4.0,54,0.00,,,0.00,weatherlink.com 1.10,2013-04-08 20:19:00,
2013-04-08 16:33:00,81.0,64.0,30.08,NE,50,2.0,3.0,56,0.00,,,0.00,weatherlink.com 1.10,2013-04-08 20:33:00,
2013-04-08 16:48:00,81.2,63.0,30.08,NE,43,2.0,3.0,55,0.00,,,0.00,weatherlink.com 1.10,2013-04-08 20:48:00,
2013-04-08 17:03:00,79.7,64.0,30.08,ENE,68,3.0,5.0,58,0.00,,,0.00,weatherlink.com 1.10,2013-04-08 21:03:00,
2013-04-08 17:18:00,79.2,65.0,30.08,ENE,57,0.0,5.0,62,0.00,,,0.00,weatherlink.com 1.10,2013-04-08 21:18:00,
2013-04-08 17:33:00,79.0,65.0,30.08,ENE,68,0.0,5.0,62,0.00,,,0.00,weatherlink.com 1.10,2013-04-08 21:33:00,
2013-04-08 17:48:00,79.0,64.0,30.09,ENE,63,1.0,4.0,61,0.00,,,0.00,weatherlink.com 1.10,2013-04-08 21:48:00,
2013-04-08 18:03:00,78.2,64.0,30.08,ENE,61,1.0,5.0,61,0.00,,,0.00,weatherlink.com 1.10,2013-04-08 22:03:00,
2013-04-08 18:18:00,78.0,62.0,30.09,East,89,0.0,5.0,59,0.00,,,0.00,weatherlink.com 1.10,2013-04-08 22:18:00,
2013-04-08 18:33:00,77.3,62.0,30.09,ENE,68,1.0,4.0,60,0.00,,,0.00,weatherlink.com 1.10,2013-04-08 22:33:00,
2013-04-08 18:48:00,76.6,63.0,30.09,East,79,1.0,2.0,63,0.00,,,0.00,weatherlink.com 1.10,2013-04-08 22:48:00,
2013-04-08 19:03:00,76.2,64.0,30.10,ENE,68,1.0,2.0,65,0.00,,,0.00,weatherlink.com 1.10,2013-04-08 23:03:00,
2013-04-08 19:18:00,75.7,63.0,30.10,ENE,75,1.0,3.0,65,0.00,,,0.00,weatherlink.com 1.10,2013-04-08 23:18:00,
2013-04-08 19:33:00,75.0,63.0,30.10,East,86,0.0,2.0,66,0.00,,,0.00,weatherlink.com 1.10,2013-04-08 23:33:00,
2013-04-08 19:48:00,74.4,63.0,30.11,ENE,77,0.0,1.0,68,0.00,,,0.00,weatherlink.com 1.10,2013-04-08 23:48:00,
2013-04-08 20:03:00,74.2,63.0,30.11,ENE,74,0.0,2.0,69,0.00,,,0.00,weatherlink.com 1.10,2013-04-09 00:03:00,
2013-04-08 20:18:00,74.0,64.0,30.11,ENE,75,0.0,1.0,70,0.00,,,0.00,weatherlink.com 1.10,2013-04-09 00:18:00,
2013-04-08 20:33:00,74.6,65.0,30.11,NE,53,0.0,4.0,72,0.00,,,0.00,weatherlink.com 1.10,2013-04-09 00:33:00,
2013-04-08 20:48:00,74.4,66.0,30.11,East,97,1.0,5.0,74,0.00,,,0.00,weatherlink.com 1.10,2013-04-09 00:48:00,
2013-04-08 21:03:00,74.0,65.0,30.11,East,89,0.0,5.0,74,0.00,,,0.00,weatherlink.com 1.10,2013-04-09 01:03:00,
2013-04-08 21:18:00,73.5,65.0,30.12,NNE,33,0.0,5.0,75,0.00,,,0.00,weatherlink.com 1.10,2013-04-09 01:18:00,
2013-04-08 21:33:00,73.6,66.0,30.12,ENE,75,0.0,4.0,76,0.00,,,0.00,weatherlink.com 1.10,2013-04-09 01:33:00,
2013-04-08 21:48:00,73.7,66.0,30.12,NE,56,0.0,4.0,76,0.00,,,0.00,weatherlink.com 1.10,2013-04-09 01:48:00,
2013-04-08 22:03:00,73.8,66.0,30.13,ENE,65,1.0,5.0,76,0.00,,,0.00,weatherlink.com 1.10,2013-04-09 02:03:00,
2013-04-08 22:18:00,73.8,66.0,30.13,ENE,78,0.0,4.0,76,0.00,,,0.00,weatherlink.com 1.10,2013-04-09 02:18:00,
2013-04-08 22:33:00,73.9,67.0,30.13,NE,51,0.0,2.0,78,0.00,,,0.00,weatherlink.com 1.10,2013-04-09 02:33:00,
2013-04-08 22:48:00,74.1,66.0,30.13,NE,56,0.0,4.0,77,0.00,,,0.00,weatherlink.com 1.10,2013-04-09 02:48:00,
2013-04-08 23:03:00,74.4,67.0,30.14,East,101,4.0,5.0,77,0.00,,,0.00,weatherlink.com 1.10,2013-04-09 03:03:00,
2013-04-08 23:18:00,74.3,66.0,30.14,SSE,150,0.0,4.0,76,0.00,,,0.00,weatherlink.com 1.10,2013-04-09 03:18:00,
2013-04-08 23:33:00,74.0,66.0,30.14,ENE,57,2.0,7.0,76,0.00,,,0.00,weatherlink.com 1.10,2013-04-09 03:33:00,